• In Uzbekistan
  • List of Countries
  • For 7 days
  • Water Temperature
  • Satellite Maps
  • Weather Map
  • Weather Widgets
  • user-avatar
    Login

    Hourly Weather Mulhule

    Today, 18 July, Wednesday

    Time Temperature Precipitation Wind Pressure Humidity
    00:00 +39°C° 0 mm 9 mps 751 mmHg 43%
    01:00 +39°C° 0 mm 8 mps 751 mmHg 43%
    02:00 +39°C° 0 mm 8 mps 751 mmHg 43%
    03:00 +38°C° 0 mm 8 mps 751 mmHg 43%
    04:00 +38°C° 0 mm 7 mps 751 mmHg 43%
    05:00 +38°C° 0 mm 6 mps 752 mmHg 42%
    06:00 +37°C° 0 mm 5 mps 752 mmHg 41%
    07:00 +39°C° 0 mm 6 mps 752 mmHg 37%
    08:00 +41°C° 0 mm 6 mps 752 mmHg 32%
    09:00 +42°C° 0 mm 6 mps 753 mmHg 28%
    10:00 +44°C° 0 mm 7 mps 753 mmHg 25%
    11:00 +46°C° 0 mm 7 mps 752 mmHg 22%
    12:00 +47°C° 0 mm 7 mps 752 mmHg 19%
    13:00 +47°C° 0 mm 7 mps 752 mmHg 18%
    14:00 +47°C° 0 mm 7 mps 751 mmHg 17%
    15:00 +48°C° 0 mm 8 mps 751 mmHg 17%
    16:00 +46°C° 0 mm 8 mps 751 mmHg 19%
    17:00 +45°C° 0 mm 8 mps 751 mmHg 22%
    18:00 +44°C° 0 mm 8 mps 750 mmHg 25%
    19:00 +43°C° 0 mm 8 mps 751 mmHg 27%
    20:00 +41°C° 0 mm 7 mps 751 mmHg 30%
    21:00 +40°C° 0 mm 7 mps 752 mmHg 33%
    22:00 +40°C° 0 mm 7 mps 752 mmHg 34%
    23:00 +40°C° 0 mm 7 mps 752 mmHg 36%

    Tomorrow, 19 July, Thursday

    Time Temperature Precipitation Wind Pressure Humidity
    00:00 +39°C° 0 mm 7 mps 753 mmHg 38%
    01:00 +39°C° 0 mm 6 mps 752 mmHg 40%
    02:00 +38°C° 0 mm 6 mps 752 mmHg 41%
    03:00 +38°C° 0 mm 6 mps 752 mmHg 43%
    04:00 +37°C° 0 mm 5 mps 752 mmHg 44%
    05:00 +37°C° 0 mm 5 mps 753 mmHg 46%
    06:00 +36°C° 0 mm 4 mps 753 mmHg 47%
    07:00 +39°C° 0 mm 5 mps 753 mmHg 42%
    08:00 +40°C° 0 mm 5 mps 754 mmHg 38%
    09:00 +41°C° 0 mm 5 mps 754 mmHg 33%
    10:00 +42°C° 0 mm 6 mps 754 mmHg 30%
    11:00 +44°C° 0 mm 6 mps 754 mmHg 27%
    12:00 +45°C° 0 mm 6 mps 754 mmHg 24%
    13:00 +45°C° 0 mm 7 mps 753 mmHg 24%
    14:00 +46°C° 0 mm 7 mps 752 mmHg 23%
    15:00 +46°C° 0 mm 8 mps 752 mmHg 23%
    16:00 +45°C° 0 mm 8 mps 751 mmHg 24%
    17:00 +44°C° 0 mm 8 mps 751 mmHg 26%
    18:00 +43°C° 0 mm 8 mps 751 mmHg 28%
    19:00 +41°C° 0.1 mm 7 mps 752 mmHg 30%
    20:00 +40°C° 0.1 mm 7 mps 752 mmHg 33%
    21:00 +39°C° 0.1 mm 6 mps 753 mmHg 35%
    22:00 +39°C° 0 mm 6 mps 753 mmHg 37%
    23:00 +39°C° 0 mm 6 mps 753 mmHg 40%

    Day after tomorrow, 20 July, Friday

    Time Temperature Precipitation Wind Pressure Humidity
    00:00 +38°C° 0 mm 6 mps 753 mmHg 42%
    01:00 +37°C° 0 mm 5 mps 753 mmHg 43%
    02:00 +37°C° 0 mm 5 mps 753 mmHg 44%
    03:00 +36°C° 0 mm 5 mps 753 mmHg 45%
    04:00 +36°C° 0 mm 5 mps 753 mmHg 46%
    05:00 +36°C° 0 mm 4 mps 753 mmHg 46%
    06:00 +36°C° 0 mm 4 mps 753 mmHg 47%
    07:00 +37°C° 0 mm 4 mps 754 mmHg 42%
    08:00 +40°C° 0 mm 4 mps 754 mmHg 37%
    09:00 +41°C° 0 mm 5 mps 754 mmHg 32%
    10:00 +42°C° 0 mm 5 mps 754 mmHg 29%
    11:00 +44°C° 0 mm 6 mps 754 mmHg 26%
    12:00 +46°C° 0 mm 7 mps 754 mmHg 23%
    13:00 +46°C° 0 mm 7 mps 753 mmHg 23%
    14:00 +46°C° 0 mm 8 mps 752 mmHg 23%
    15:00 +46°C° 0 mm 8 mps 751 mmHg 23%
    16:00 +45°C° 0 mm 8 mps 751 mmHg 24%
    17:00 +44°C° 0 mm 8 mps 751 mmHg 26%
    18:00 +43°C° 0 mm 8 mps 751 mmHg 27%
    19:00 +41°C° 0 mm 8 mps 751 mmHg 30%
    20:00 +40°C° 0 mm 8 mps 752 mmHg 33%
    21:00 +40°C° 0 mm 8 mps 753 mmHg 36%
    22:00 +39°C° 0 mm 7 mps 753 mmHg 37%
    23:00 +39°C° 0 mm 7 mps 753 mmHg 38%

    21 July, Saturday

    Time Temperature Precipitation Wind Pressure Humidity
    00:00 +39°C° 0 mm 7 mps 753 mmHg 39%
    01:00 +39°C° 0 mm 6 mps 752 mmHg 40%
    02:00 +38°C° 0 mm 6 mps 752 mmHg 41%
    03:00 +37°C° 0 mm 5 mps 752 mmHg 42%
    04:00 +37°C° 0 mm 5 mps 752 mmHg 42%
    05:00 +37°C° 0 mm 5 mps 752 mmHg 42%
    06:00 +37°C° 0 mm 4 mps 752 mmHg 43%
    07:00 +39°C° 0 mm 5 mps 753 mmHg 39%
    08:00 +40°C° 0 mm 5 mps 754 mmHg 35%
    09:00 +41°C° 0 mm 5 mps 754 mmHg 31%
    10:00 +42°C° 0 mm 6 mps 754 mmHg 29%
    11:00 +44°C° 0 mm 7 mps 753 mmHg 27%
    12:00 +45°C° 0 mm 7 mps 753 mmHg 25%
    13:00 +45°C° 0 mm 7 mps 752 mmHg 26%
    14:00 +45°C° 0 mm 8 mps 752 mmHg 27%
    15:00 +45°C° 0 mm 8 mps 751 mmHg 28%
    16:00 +44°C° 0.1 mm 8 mps 751 mmHg 29%
    17:00 +43°C° 0.1 mm 8 mps 752 mmHg 31%
    18:00 +41°C° 0.1 mm 8 mps 752 mmHg 33%
    19:00 +41°C° 0.1 mm 7 mps 752 mmHg 34%
    20:00 +40°C° 0.1 mm 7 mps 753 mmHg 36%
    21:00 +40°C° 0.1 mm 6 mps 753 mmHg 37%
    22:00 +40°C° 0 mm 6 mps 753 mmHg 38%
    23:00 +40°C° 0 mm 6 mps 753 mmHg 38%

    22 July, Sunday

    Time Temperature Precipitation Wind Pressure Humidity
    00:00 +39°C° 0 mm 6 mps 753 mmHg 38%
    01:00 +39°C° 0 mm 6 mps 753 mmHg 38%
    02:00 +39°C° 0 mm 5 mps 753 mmHg 38%
    03:00 +39°C° 0 mm 5 mps 752 mmHg 38%
    04:00 +38°C° 0 mm 4 mps 753 mmHg 39%
    05:00 +38°C° 0 mm 4 mps 753 mmHg 40%
    06:00 +37°C° 0 mm 4 mps 754 mmHg 41%
    07:00 +38°C° 0 mm 4 mps 754 mmHg 39%
    08:00 +40°C° 0 mm 5 mps 755 mmHg 37%
    09:00 +40°C° 0 mm 6 mps 755 mmHg 36%
    10:00 +42°C° 0 mm 6 mps 755 mmHg 33%
    11:00 +44°C° 0 mm 6 mps 754 mmHg 30%
    12:00 +45°C° 0 mm 6 mps 754 mmHg 27%
    13:00 +45°C° 0 mm 6 mps 753 mmHg 26%
    14:00 +45°C° 0 mm 6 mps 752 mmHg 26%
    15:00 +46°C° 0 mm 6 mps 751 mmHg 26%
    16:00 +45°C° 0.1 mm 6 mps 751 mmHg 28%
    17:00 +44°C° 0.1 mm 6 mps 752 mmHg 31%
    18:00 +42°C° 0.1 mm 6 mps 752 mmHg 33%
    19:00 +41°C° 0.1 mm 6 mps 752 mmHg 35%
    20:00 +41°C° 0.1 mm 5 mps 753 mmHg 37%
    21:00 +40°C° 0.1 mm 4 mps 753 mmHg 39%
    22:00 +40°C° 0 mm 4 mps 753 mmHg 39%
    23:00 +40°C° 0 mm 5 mps 753 mmHg 40%

    23 July, Monday

    Time Temperature Precipitation Wind Pressure Humidity
    00:00 +39°C° 0 mm 5 mps 753 mmHg 41%
    01:00 +39°C° 0.1 mm 5 mps 753 mmHg 41%
    02:00 +39°C° 0.1 mm 5 mps 753 mmHg 41%
    03:00 +38°C° 0.1 mm 4 mps 753 mmHg 41%
    04:00 +37°C° 0 mm 4 mps 753 mmHg 42%
    05:00 +37°C° 0 mm 4 mps 754 mmHg 42%
    06:00 +37°C° 0 mm 4 mps 754 mmHg 43%
    07:00 +39°C° 0 mm 5 mps 754 mmHg 40%
    08:00 +40°C° 0 mm 5 mps 755 mmHg 36%
    09:00 +41°C° 0 mm 5 mps 755 mmHg 33%
    10:00 +42°C° 0 mm 6 mps 754 mmHg 31%
    11:00 +44°C° 0 mm 6 mps 754 mmHg 29%
    12:00 +45°C° 0 mm 7 mps 753 mmHg 27%
    13:00 +45°C° 0 mm 7 mps 753 mmHg 27%
    14:00 +45°C° 0 mm 8 mps 752 mmHg 28%
    15:00 +45°C° 0 mm 8 mps 751 mmHg 28%
    16:00 +44°C° 0 mm 8 mps 751 mmHg 30%
    17:00 +44°C° 0 mm 8 mps 751 mmHg 32%
    18:00 +43°C° 0 mm 8 mps 751 mmHg 34%
    19:00 +41°C° 0 mm 8 mps 752 mmHg 36%
    20:00 +40°C° 0 mm 9 mps 752 mmHg 38%
    21:00 +40°C° 0 mm 9 mps 752 mmHg 40%
    22:00 +39°C° 0 mm 9 mps 752 mmHg 42%
    23:00 +39°C° 0 mm 9 mps 752 mmHg 44%
    Show more